Location: Hertford
(51.8000°N, 0.0667°W)
Time: 03:57:39
(UTC+00:00)

Cosmos 2233 Rocket - Pass Details

Date: 18 September 2020
Orbit: 952 x 991 km, 82.9° (Epoch: 20 October)

Event Time Altitude Azimuth Distance (km) Brightness Sun altitude
Rises 18:42:23 0° 185° (S) 3,669 7.0 -6.3°
Reaches altitude 10° 18:44:54 10° 185° (S) 2,720 6.3 -6.6°
Maximum altitude 18:51:08 84° 99° (E) 982 4.0 -7.6°
Drops below altitude 10° 18:57:21 10° 11° (N) 2,711 6.4 -8.5°
Sets 18:59:51 0° 11° (N) 3,657 7.0 -8.9°
